GW2952 Weather Reports


time (UTC)temp
F
wind
direction
speed
knots
gust
knots
rain 1hr
in
rain 24hr
in
rain mn
in
humidity
%
barometer
mb
20260504151003 59 212 5.2 14.8 0.00 0.00 0.00 42 1011.8
20260504150503 59 209 4.3 13.0 0.00 0.00 0.00 38 1011.7
20260504140503 55 236 4.3 13.0 0.00 0.00 0.00 43 1011.9
20260504130503 53 238 3.5 8.7 0.00 0.00 0.00 46 1012.2
20260504110503 40 228 0.9 5.2 0.00 0.00 0.00 67 1012.2
20260504100503 34 270 0.0 1.7 0.00 0.00 0.00 75 1012.1
20260504082003 40 338 0.9 1.7 0.00 0.00 0.00 63 1012.3
20260504081503 40 331 0.9 1.7 0.00 0.00 0.00 63 1012.5
20260504081003 40 342 0.9 2.6 0.00 0.00 0.00 63 1012.5
20260504080503 40 350 0.9 3.5 0.00 0.00 0.00 63 1012.5
20260504050503 43 271 1.7 6.1 0.00 0.00 0.00 57 1012.0
20260504050003 43 275 1.7 5.2 0.00 0.00 0.00 57 1012.0
20260504045524 43 263 1.7 7.8 0.00 0.00 0.00 57 1012.0
20260504045003 43 267 1.7 7.8 0.00 0.00 0.00 58 1011.9
20260504044504 43 278 1.7 6.1 0.00 0.00 0.00 58 1011.8
20260504044024 43 287 1.7 6.1 0.00 0.00 0.00 58 1011.8
20260504043503 43 284 0.9 5.2 0.00 0.00 0.00 58 1011.9
20260504043024 43 266 0.9 5.2 0.00 0.00 0.00 58 1011.8
20260504042503 43 277 1.7 6.1 0.00 0.00 0.00 58 1011.8
20260504042003 42 281 1.7 6.1 0.00 0.00 0.00 59 1011.7
20260504041503 42 269 0.9 6.1 0.00 0.00 0.00 59 1011.7
20260504041003 42 291 0.9 6.1 0.00 0.00 0.00 60 1011.8
20260504040524 42 315 0.9 3.5 0.00 0.00 0.00 60 1011.7
20260504040003 42 302 0.9 3.5 0.00 0.00 0.00 60 1011.6
20260504035524 42 299 0.9 3.5 0.00 0.00 0.00 59 1011.7
20260504035003 42 308 0.9 3.5 0.00 0.00 0.00 58 1011.4
20260504034503 42 322 0.9 2.6 0.00 0.00 0.00 58 1011.6
20260504034003 42 325 0.9 2.6 0.00 0.00 0.00 58 1011.3
20260504033503 42 303 0.9 2.6 0.00 0.00 0.00 57 1011.4
20260504033003 43 297 0.9 3.5 0.00 0.00 0.00 58 1011.3
20260504032503 42 307 0.9 3.5 0.00 0.00 0.00 58 1011.5
20260504032003 42 277 0.9 3.5 0.00 0.00 0.00 59 1011.6
20260504031503 42 230 0.9 5.2 0.00 0.00 0.00 58 1011.7
20260504031003 42 252 0.9 5.2 0.00 0.00 0.00 58 1011.6
20260504030503 42 318 0.0 1.7 0.00 0.00 0.00 58 1011.4
20260504030024 42 287 0.0 1.7 0.00 0.00 0.00 59 1011.5
20260504025503 42 279 0.0 1.7 0.00 0.00 0.00 59 1011.6
20260504025003 42 259 0.0 1.7 0.00 0.00 0.00 59 1011.6
20260504024503 42 244 0.0 1.7 0.00 0.00 0.00 59 1011.6
20260504024003 42 243 0.0 1.7 0.00 0.00 0.00 58 1011.6
20260504023503 42 266 0.0 2.6 0.00 0.00 0.00 58 1011.6
20260504023003 42 271 0.0 2.6 0.00 0.00 0.00 58 1011.6
20260504022503 42 239 0.0 1.7 0.00 0.00 0.00 58 1011.6
20260504022003 42 214 0.0 1.7 0.00 0.00 0.00 57 1011.7
20260504021524 42 241 0.0 1.7 0.00 0.00 0.00 57 1011.7
20260504021024 42 241 0.0 1.7 0.00 0.00 0.00 57 1011.8
20260504020503 42 0 0.0 0.0 0.00 0.00 0.00 57 1011.6
20260504020003 42 0 0.0 0.0 0.00 0.00 0.00 57 1011.6
20260504015524 43 250 0.0 1.7 0.00 0.00 0.00 56 1011.6
20260504015003 43 250 0.0 2.6 0.00 0.00 0.00 56 1011.6
20260504014503 43 250 0.0 2.6 0.00 0.00 0.00 55 1011.6
20260504014003 44 112 0.0 0.9 0.00 0.00 0.00 54 1011.5
20260504013524 44 207 0.0 1.7 0.00 0.00 0.00 53 1011.4
20260504013003 44 222 0.9 2.6 0.00 0.00 0.00 53 1011.2
20260504012503 44 226 0.9 2.6 0.00 0.00 0.00 53 1011.4
20260504012003 44 240 0.0 1.7 0.00 0.00 0.00 52 1011.4
20260504011503 44 249 0.0 2.6 0.00 0.00 0.00 52 1011.5
20260504011003 45 253 0.0 2.6 0.00 0.00 0.00 51 1011.3
20260504010503 45 267 0.0 1.7 0.00 0.00 0.00 51 1011.3
20260504010003 45 254 0.0 1.7 0.00 0.00 0.00 50 1011.2
20260504005524 46 239 0.0 1.7 0.00 0.00 0.00 50 1011.1
20260504005003 46 238 0.9 6.1 0.00 0.00 0.00 50 1011.2
20260504004524 46 243 0.9 6.1 0.00 0.00 0.00 49 1011.0
20260504004003 47 303 0.0 2.6 0.00 0.00 0.00 48 1011.2
20260504003503 47 249 0.9 7.8 0.00 0.00 0.00 48 1011.0
20260504003003 47 242 0.9 7.8 0.00 0.00 0.00 48 1011.0
20260504002503 47 257 0.9 3.5 0.00 0.00 0.00 47 1010.9
20260504002024 47 270 0.9 3.5 0.00 0.00 0.00 47 1011.0
20260504001503 47 266 0.9 5.2 0.00 0.00 0.00 47 1011.0
20260504001003 47 246 0.9 5.2 0.00 0.00 0.00 47 1010.6
20260504000503 47 243 0.0 3.5 0.00 0.00 0.00 47 1011.0
20260504000003 48 266 0.0 1.7 0.00 0.00 0.00 47 1010.8
20260503235524 48 280 0.0 1.7 0.00 0.00 0.00 47 1010.7
20260503235003 49 303 0.9 3.5 0.00 0.00 0.00 46 1010.5
20260503234524 49 286 0.9 3.5 0.00 0.00 0.00 45 1010.7
20260503234008 49 280 1.7 7.8 0.00 0.00 0.00 44 1010.4
20260503233503 49 296 1.7 7.8 0.00 0.00 0.00 43 1010.6
20260503233003 50 275 1.7 7.8 0.00 0.00 0.00 44 1010.4
20260503232503 50 271 1.7 7.0 0.00 0.00 0.00 43 1010.4
20260503232003 50 277 0.9 7.0 0.00 0.00 0.00 42 1010.4
20260503231524 51 264 1.7 3.5 0.00 0.00 0.00 42 1010.4
20260503231003 51 271 1.7 6.1 0.00 0.00 0.00 42 1010.4
20260503230503 51 290 1.7 6.1 0.00 0.00 0.00 42 1010.4
20260503230003 51 271 2.6 7.0 0.00 0.00 0.00 42 1010.4
20260503225503 51 270 1.7 7.0 0.00 0.00 0.00 41 1010.3
20260503225003 51 277 1.7 5.2 0.00 0.00 0.00 41 1010.4
20260503224503 51 258 1.7 7.8 0.00 0.00 0.00 41 1010.3
20260503224003 52 261 2.6 11.3 0.00 0.00 0.00 40 1010.2
20260503223503 52 267 2.6 11.3 0.00 0.00 0.00 41 1010.1
20260503223003 52 286 1.7 8.7 0.00 0.00 0.00 40 1010.4
20260503222503 52 287 2.6 8.7 0.00 0.00 0.00 40 1010.4
20260503222003 52 278 3.5 7.8 0.00 0.00 0.00 39 1010.2
20260503221503 52 254 2.6 7.8 0.00 0.00 0.00 39 1010.2
20260503221003 52 271 2.6 7.8 0.00 0.00 0.00 39 1010.4
20260503220503 51 296 2.6 11.3 0.00 0.00 0.00 39 1010.2
20260503220024 51 308 2.6 11.3 0.00 0.00 0.00 39 1010.4
20260503215503 51 314 2.6 9.6 0.00 0.00 0.00 39 1010.3
20260503215003 52 290 3.5 9.6 0.00 0.00 0.00 37 1010.2
20260503214503 52 277 2.6 7.8 0.00 0.00 0.00 38 1010.3
20260503214003 52 289 3.5 11.3 0.00 0.00 0.00 37 1010.1
20260503213503 53 295 3.5 11.3 0.00 0.00 0.00 37 1009.9
20260503212503 52 287 2.6 9.6 0.00 0.00 0.00 36 1009.8
20260503212003 53 271 3.5 9.6 0.00 0.00 0.00 35 1010.0
20260503211003 53 280 3.5 7.8 0.00 0.00 0.00 35 1009.9
20260503210503 53 258 3.5 8.7 0.00 0.00 0.00 36 1009.8
20260503210003 53 257 3.5 13.0 0.00 0.00 0.00 36 1009.9
20260503205503 53 252 3.5 13.0 0.00 0.00 0.00 35 1009.8
20260503205003 54 257 3.5 11.3 0.00 0.00 0.00 34 1009.8
20260503204524 54 288 4.3 11.3 0.00 0.00 0.00 34 1009.8
20260503204003 54 306 4.3 11.3 0.00 0.00 0.00 35 1009.5
20260503203503 54 279 4.3 12.2 0.00 0.00 0.00 34 1010.0
20260503203003 54 282 4.3 13.9 0.00 0.00 0.00 35 1009.9
20260503202503 53 307 4.3 13.9 0.00 0.00 0.00 34 1009.9
20260503202003 53 275 3.5 13.9 0.00 0.00 0.00 36 1010.0
20260503201525 53 262 3.5 13.9 0.00 0.00 0.00 35 1009.9
20260503201003 53 265 3.5 11.3 0.00 0.00 0.00 32 1009.8
20260503200503 53 292 3.5 9.6 0.00 0.00 0.00 37 1009.9
20260503200003 52 286 4.3 13.9 0.00 0.00 0.00 36 1009.9
20260503195503 52 283 4.3 13.9 0.00 0.00 0.00 35 1010.2
20260503195003 52 303 3.5 12.2 0.00 0.00 0.00 35 1010.0
20260503194503 52 310 4.3 18.2 0.00 0.00 0.00 35 1010.3
20260503194003 52 311 5.2 18.2 0.00 0.00 0.00 35 1010.3
20260503193503 52 316 3.5 13.9 0.00 0.00 0.00 36 1010.4
20260503193003 52 313 3.5 12.2 0.00 0.00 0.00 36 1010.3
20260503192524 52 311 4.3 12.2 0.00 0.00 0.00 37 1010.4
20260503192003 51 309 5.2 13.0 0.00 0.00 0.00 37 1010.6
20260503191524 51 292 4.3 13.0 0.00 0.00 0.00 36 1010.5
20260503191003 51 257 4.3 15.6 0.00 0.00 0.00 36 1010.3
20260503190503 51 263 4.3 15.6 0.00 0.00 0.00 38 1010.5
20260503190024 51 285 3.5 13.0 0.00 0.00 0.00 39 1010.5
20260503185524 51 290 4.3 13.0 0.00 0.00 0.00 38 1010.6
20260503185003 51 289 4.3 13.0 0.00 0.00 0.00 38 1010.7
20260503184503 51 296 4.3 13.0 0.00 0.00 0.00 37 1010.9
20260503184003 51 290 4.3 13.0 0.00 0.00 0.00 36 1010.8
20260503183503 51 294 4.3 14.8 0.00 0.00 0.00 41 1010.8
20260503183024 50 297 4.3 14.8 0.00 0.00 0.00 38 1010.9
20260503182524 50 292 4.3 13.9 0.00 0.00 0.00 38 1010.9
20260503182003 50 296 4.3 13.0 0.00 0.00 0.00 39 1010.9
20260503181504 50 278 5.2 13.9 0.00 0.00 0.00 37 1010.7
20260503181003 50 265 4.3 13.9 0.00 0.00 0.00 39 1010.8
20260503180503 50 270 5.2 20.0 0.00 0.00 0.00 40 1010.9
20260503180003 50 276 5.2 20.0 0.00 0.00 0.00 39 1011.0
20260503175524 49 290 4.3 12.2 0.00 0.00 0.00 41 1011.2
20260503175003 49 289 4.3 13.9 0.00 0.00 0.00 38 1010.7
20260503174503 50 277 4.3 13.9 0.00 0.00 0.00 38 1011.0
20260503174003 49 294 3.5 13.0 0.00 0.00 0.00 42 1011.0
20260503173503 49 303 4.3 20.9 0.00 0.00 0.00 39 1011.1
20260503173003 48 278 3.5 20.9 0.00 0.00 0.00 43 1011.0
20260503172504 48 263 3.5 12.2 0.00 0.00 0.00 41 1011.0
20260503172003 49 279 4.3 12.2 0.00 0.00 0.00 41 1011.0
20260503171503 48 275 3.5 12.2 0.00 0.00 0.00 41 1011.1
20260503171003 48 266 3.5 9.6 0.00 0.00 0.00 42 1010.9
20260503170503 48 272 4.3 13.9 0.00 0.00 0.00 43 1011.1